STARLINK-32165 (60599 NORAD) Tracking and Keplerian Element Data

This shows tracking and keplerian element data for the satellite.

Feedback or suggestion? Click here.




ElementValue
Catalog60599
NameSTARLINK-32165
Epoch Orbit944
Epoch Day286.41703615
Epoch Year2024
RAAN172.0775
Inclination53.1592
Eccentricity0.0001541
Argument of Perigee83.6121
Mean Anonmoly276.5059
Mean Motion15.39610496
Decay Rate5.78E-05
L11 60599U 24150S 24286.41703615 .00005780 00000+0 15441-3 0 9997
L22 60599 53.1592 172.0775 0001541 83.6121 276.5059 15.39610496 9442



Live tracking and technical data element details for STARLINK-32165 (NORAD 60599). STARLINK-32165 can be tracked NOW for your location showing map with azimuth and elevation plus other details from your city location.







IsCatalogInMostPopularTable: catalog: 60599, numindb: 11
Update: records affected: 1



GetName: 60599 STARLINK-32165

Hit Count: updated at: Wed, 04 Dec 2024 18:15:05 GMT